| time (UTC) | temp F | wind direction | speed MPH | gust MPH | rain 1hr in | rain 24hr in | rain mn in | humidity % | barometer mb |
| 20260507153004 | 54 | 65 | 3.0 | 7.0 | 0.12 | 0.14 | 0.14 | 92 | 1019.5 |
| 20260507152503 | 55 | 36 | 5.0 | 10.0 | 0.11 | 0.12 | 0.12 | 92 | 1019.2 |
| 20260507152004 | 55 | 38 | 3.0 | 10.0 | 0.10 | 0.11 | 0.11 | 92 | 1019.3 |
| 20260507151504 | 55 | 51 | 3.0 | 7.0 | 0.08 | 0.09 | 0.09 | 92 | 1019.0 |
| 20260507151004 | 56 | 39 | 2.0 | 5.0 | 0.08 | 0.09 | 0.09 | 92 | 1019.0 |
| 20260507150005 | 55 | 49 | 4.0 | 8.0 | 0.08 | 0.08 | 0.08 | 91 | 1019.0 |
| 20260507144004 | 57 | 42 | 3.0 | 8.0 | 0.06 | 0.06 | 0.06 | 87 | 1018.6 |
| 20260507143503 | 58 | 29 | 5.0 | 9.0 | 0.03 | 0.03 | 0.03 | 85 | 1018.5 |
| 20260507143005 | 58 | 50 | 3.0 | 9.0 | 0.02 | 0.02 | 0.02 | 83 | 1018.2 |
| 20260507142504 | 58 | 31 | 2.0 | 10.0 | 0.01 | 0.01 | 0.01 | 83 | 1018.2 |
| 20260507142004 | 58 | 25 | 4.0 | 8.0 | 0.01 | 0.01 | 0.01 | 84 | 1017.9 |
| 20260507141504 | 58 | 40 | 5.0 | 10.0 | 0.01 | 0.01 | 0.01 | 84 | 1018.0 |
| 20260507141003 | 58 | 45 | 5.0 | 12.0 | 0.01 | 0.01 | 0.01 | 84 | 1018.1 |
| 20260507135504 | 60 | 52 | 3.0 | 6.0 | 0.00 | 0.00 | 0.00 | 79 | 1018.0 |
| 20260507135004 | 60 | 53 | 6.0 | 14.0 | 0.00 | 0.00 | 0.00 | 76 | 1017.7 |
| 20260507134504 | 61 | 44 | 5.0 | 12.0 | 0.00 | 0.00 | 0.00 | 75 | 1017.7 |
| 20260507133504 | 62 | 21 | 5.0 | 17.0 | 0.00 | 0.00 | 0.00 | 68 | 1017.5 |
| 20260507133004 | 62 | 31 | 5.0 | 10.0 | 0.00 | 0.00 | 0.00 | 68 | 1017.5 |
| 20260507132503 | 62 | 44 | 5.0 | 12.0 | 0.00 | 0.00 | 0.00 | 67 | 1017.5 |
| 20260507131504 | 63 | 42 | 5.0 | 10.0 | 0.00 | 0.00 | 0.00 | 64 | 1017.5 |
| 20260507131004 | 63 | 27 | 6.0 | 9.0 | 0.00 | 0.01 | 0.00 | 63 | 1017.6 |
| 20260507130504 | 63 | 32 | 4.0 | 10.0 | 0.00 | 0.03 | 0.00 | 63 | 1017.7 |
| 20260507130004 | 63 | 34 | 5.0 | 10.0 | 0.00 | 0.04 | 0.00 | 63 | 1017.5 |
| 20260507125504 | 63 | 45 | 6.0 | 13.0 | 0.00 | 0.06 | 0.00 | 64 | 1017.8 |
| 20260507125004 | 64 | 47 | 6.0 | 13.0 | 0.00 | 0.09 | 0.00 | 63 | 1017.8 |
| 20260507124504 | 65 | 43 | 5.0 | 12.0 | 0.00 | 0.09 | 0.00 | 61 | 1017.5 |
| 20260507123503 | 64 | 42 | 6.0 | 13.0 | 0.00 | 0.09 | 0.00 | 61 | 1017.7 |
| 20260507123004 | 64 | 35 | 7.0 | 13.0 | 0.00 | 0.09 | 0.00 | 63 | 1017.8 |
| 20260507122504 | 64 | 37 | 5.0 | 13.0 | 0.00 | 0.09 | 0.00 | 64 | 1017.8 |
| 20260507122004 | 64 | 59 | 6.0 | 12.0 | 0.00 | 0.09 | 0.00 | 65 | 1018.0 |
| 20260507121004 | 65 | 49 | 5.0 | 13.0 | 0.00 | 0.09 | 0.00 | 63 | 1018.1 |
| 20260507120504 | 65 | 47 | 5.0 | 9.0 | 0.00 | 0.09 | 0.00 | 64 | 1018.0 |
| 20260507120005 | 65 | 44 | 8.0 | 14.0 | 0.00 | 0.09 | 0.00 | 65 | 1018.2 |
| 20260507115503 | 64 | 48 | 6.0 | 13.0 | 0.00 | 0.09 | 0.00 | 66 | 1018.2 |
| 20260507115004 | 63 | 37 | 5.0 | 10.0 | 0.00 | 0.09 | 0.00 | 67 | 1018.5 |
| 20260507114504 | 63 | 44 | 6.0 | 14.0 | 0.00 | 0.09 | 0.00 | 68 | 1018.7 |
| 20260507114004 | 62 | 23 | 5.0 | 9.0 | 0.00 | 0.09 | 0.00 | 70 | 1018.9 |
| 20260507113504 | 62 | 32 | 7.0 | 14.0 | 0.00 | 0.09 | 0.00 | 71 | 1018.8 |
| 20260507113004 | 62 | 49 | 5.0 | 10.0 | 0.00 | 0.09 | 0.00 | 69 | 1018.7 |
| 20260507112004 | 62 | 49 | 5.0 | 15.0 | 0.00 | 0.09 | 0.00 | 69 | 1019.2 |
| 20260507111506 | 62 | 49 | 6.0 | 10.0 | 0.00 | 0.09 | 0.00 | 69 | 1019.1 |
| 20260507110504 | 64 | 33 | 6.0 | 10.0 | 0.00 | 0.09 | 0.00 | 68 | 1018.9 |
| 20260507110004 | 63 | 39 | 5.0 | 13.0 | 0.00 | 0.09 | 0.00 | 68 | 1019.0 |
| 20260507105504 | 63 | 37 | 6.0 | 10.0 | 0.00 | 0.09 | 0.00 | 68 | 1019.2 |
| 20260507104504 | 61 | 42 | 4.0 | 9.0 | 0.00 | 0.09 | 0.00 | 71 | 1019.6 |
| 20260507104004 | 61 | 46 | 6.0 | 10.0 | 0.00 | 0.09 | 0.00 | 72 | 1019.6 |
| 20260507103503 | 61 | 48 | 5.0 | 10.0 | 0.00 | 0.09 | 0.00 | 73 | 1019.6 |
| 20260507103003 | 61 | 347 | 2.0 | 6.0 | 0.00 | 0.09 | 0.00 | 73 | 1019.6 |
| 20260507102504 | 61 | 39 | 2.0 | 5.0 | 0.00 | 0.09 | 0.00 | 74 | 1019.8 |
| 20260507102006 | 60 | 359 | 2.0 | 7.0 | 0.00 | 0.09 | 0.00 | 74 | 1019.7 |
| 20260507101506 | 61 | 53 | 3.0 | 6.0 | 0.00 | 0.09 | 0.00 | 73 | 1019.7 |
| 20260507101004 | 60 | 105 | 3.0 | 7.0 | 0.00 | 0.09 | 0.00 | 75 | 1019.7 |
| 20260507100504 | 60 | 42 | 3.0 | 7.0 | 0.00 | 0.09 | 0.00 | 76 | 1019.8 |
| 20260507095003 | 59 | 34 | 5.0 | 8.0 | 0.00 | 0.09 | 0.00 | 77 | 1020.3 |
| 20260507094504 | 59 | 38 | 4.0 | 7.0 | 0.00 | 0.09 | 0.00 | 77 | 1020.1 |
| 20260507094004 | 59 | 42 | 3.0 | 7.0 | 0.00 | 0.09 | 0.00 | 77 | 1020.3 |
| 20260507093037 | 60 | 46 | 4.0 | 8.0 | 0.00 | 0.09 | 0.00 | 76 | 1020.1 |
| 20260507092533 | 59 | 39 | 4.0 | 9.0 | 0.00 | 0.09 | 0.00 | 77 | 1020.0 |
| 20260507091036 | 59 | 42 | 2.0 | 7.0 | 0.00 | 0.09 | 0.00 | 78 | 1020.1 |
| 20260507090532 | 59 | 57 | 2.0 | 7.0 | 0.00 | 0.09 | 0.00 | 78 | 1020.2 |
| 20260507090033 | 59 | 40 | 2.0 | 6.0 | 0.00 | 0.09 | 0.00 | 78 | 1020.3 |
| 20260507085509 | 59 | 14 | 2.0 | 5.0 | 0.00 | 0.09 | 0.00 | 80 | 1020.4 |
| 20260507084504 | 58 | 36 | 5.0 | 9.0 | 0.00 | 0.09 | 0.00 | 80 | 1020.6 |
| 20260507084004 | 58 | 47 | 2.0 | 5.0 | 0.00 | 0.09 | 0.00 | 81 | 1020.4 |
| 20260507083503 | 58 | 25 | 3.0 | 8.0 | 0.00 | 0.09 | 0.00 | 81 | 1020.6 |
| 20260507083004 | 58 | 52 | 2.0 | 5.0 | 0.00 | 0.09 | 0.00 | 81 | 1020.4 |
| 20260507082504 | 58 | 58 | 3.0 | 6.0 | 0.00 | 0.09 | 0.00 | 81 | 1020.5 |
| 20260507081504 | 58 | 56 | 2.0 | 5.0 | 0.00 | 0.09 | 0.00 | 81 | 1020.4 |
| 20260507081004 | 58 | 34 | 3.0 | 7.0 | 0.00 | 0.09 | 0.00 | 81 | 1020.5 |
| 20260507080504 | 58 | 35 | 3.0 | 7.0 | 0.00 | 0.09 | 0.00 | 82 | 1020.4 |
| 20260507080004 | 58 | 48 | 3.0 | 7.0 | 0.00 | 0.09 | 0.00 | 84 | 1020.4 |
| 20260507075504 | 57 | 50 | 2.0 | 7.0 | 0.00 | 0.09 | 0.00 | 84 | 1020.2 |
| 20260507075004 | 57 | 50 | 2.0 | 6.0 | 0.00 | 0.09 | 0.00 | 85 | 1020.1 |
| 20260507074503 | 57 | 54 | 3.0 | 7.0 | 0.00 | 0.09 | 0.00 | 86 | 1020.3 |
| 20260507074004 | 57 | 47 | 1.0 | 3.0 | 0.00 | 0.09 | 0.00 | 87 | 1020.4 |
| 20260507072504 | 56 | 60 | 1.0 | 2.0 | 0.00 | 0.09 | 0.00 | 87 | 1020.6 |
| 20260507072004 | 55 | 7 | 0.0 | 2.0 | 0.00 | 0.09 | 0.00 | 88 | 1020.9 |
| 20260507071504 | 55 | 64 | 0.0 | 2.0 | 0.00 | 0.09 | 0.00 | 88 | 1020.7 |
| 20260507070504 | 55 | 81 | 1.0 | 2.0 | 0.00 | 0.09 | 0.00 | 88 | 1020.7 |
| 20260507065503 | 55 | 141 | 1.0 | 2.0 | 0.00 | 0.09 | 0.00 | 88 | 1020.7 |
| 20260507065003 | 54 | 187 | 0.0 | 1.0 | 0.00 | 0.09 | 0.00 | 89 | 1020.5 |
| 20260507064504 | 54 | 233 | 0.0 | 1.0 | 0.00 | 0.09 | 0.00 | 89 | 1020.7 |
| 20260507063004 | 53 | 244 | 1.0 | 2.0 | 0.00 | 0.09 | 0.00 | 89 | 1020.7 |
| 20260507062504 | 53 | 231 | 2.0 | 2.0 | 0.00 | 0.09 | 0.00 | 89 | 1020.7 |
| 20260507062004 | 53 | 220 | 0.0 | 2.0 | 0.00 | 0.09 | 0.00 | 90 | 1020.7 |
| 20260507061503 | 53 | 257 | 1.0 | 2.0 | 0.00 | 0.09 | 0.00 | 90 | 1020.8 |
| 20260507061004 | 53 | 290 | 0.0 | 1.0 | 0.00 | 0.09 | 0.00 | 91 | 1020.7 |
| 20260507060504 | 53 | 291 | 0.0 | 1.0 | 0.00 | 0.09 | 0.00 | 91 | 1020.6 |
| 20260507060004 | 52 | 291 | 1.0 | 2.0 | 0.00 | 0.09 | 0.00 | 91 | 1020.9 |
| 20260507055504 | 52 | 292 | 0.0 | 0.0 | 0.00 | 0.09 | 0.00 | 92 | 1020.8 |
| 20260507055004 | 52 | 293 | 0.0 | 0.0 | 0.00 | 0.09 | 0.00 | 92 | 1020.9 |
| 20260507054504 | 52 | 294 | 0.0 | 0.0 | 0.00 | 0.09 | 0.00 | 92 | 1020.7 |
| 20260507054004 | 51 | 294 | 0.0 | 0.0 | 0.00 | 0.09 | 0.00 | 93 | 1020.7 |
| 20260507053504 | 51 | 298 | 0.0 | 0.0 | 0.00 | 0.09 | 0.00 | 93 | 1020.8 |
| 20260507053004 | 51 | 298 | 0.0 | 0.0 | 0.00 | 0.09 | 0.00 | 93 | 1020.6 |
| 20260507052004 | 51 | 298 | 0.0 | 0.0 | 0.00 | 0.09 | 0.00 | 93 | 1020.4 |
| 20260507051505 | 51 | 294 | 0.0 | 0.0 | 0.00 | 0.09 | 0.00 | 93 | 1020.6 |
| 20260507051004 | 51 | 299 | 0.0 | 1.0 | 0.00 | 0.09 | 0.00 | 93 | 1020.6 |
| 20260507050504 | 51 | 293 | 1.0 | 2.0 | 0.00 | 0.09 | 0.00 | 94 | 1020.6 |
| 20260507050005 | 51 | 294 | 1.0 | 1.0 | 0.00 | 0.09 | 0.00 | 94 | 1020.4 |
| 20260507045504 | 51 | 295 | 0.0 | 1.0 | 0.00 | 0.09 | 0.00 | 94 | 1020.5 |
| 20260507045004 | 51 | 295 | 0.0 | 1.0 | 0.00 | 0.09 | 0.00 | 94 | 1020.4 |
| 20260507044004 | 50 | 295 | 1.0 | 2.0 | 0.00 | 0.09 | 0.00 | 94 | 1020.5 |
| 20260507043004 | 50 | 25 | 0.0 | 1.0 | 0.00 | 0.09 | 0.00 | 94 | 1020.5 |
| 20260507042503 | 50 | 25 | 0.0 | 1.0 | 0.00 | 0.09 | 0.00 | 94 | 1020.6 |
| 20260507042004 | 50 | 25 | 0.0 | 1.0 | 0.00 | 0.09 | 0.00 | 94 | 1020.4 |
| 20260507041504 | 50 | 25 | 0.0 | 1.0 | 0.00 | 0.09 | 0.00 | 94 | 1020.6 |
| 20260507041004 | 50 | 25 | 2.0 | 2.0 | 0.00 | 0.09 | 0.00 | 94 | 1020.5 |
| 20260507040504 | 50 | 25 | 1.0 | 2.0 | 0.00 | 0.09 | 0.00 | 94 | 1020.3 |
| 20260507040004 | 50 | 25 | 0.0 | 0.0 | 0.00 | 0.09 | 0.00 | 94 | 1020.3 |
| 20260507035504 | 50 | 25 | 0.0 | 0.0 | 0.00 | 0.09 | 0.00 | 93 | 1020.4 |
| 20260507035004 | 50 | 25 | 0.0 | 0.0 | 0.00 | 0.09 | 0.00 | 93 | 1020.3 |
| 20260507034503 | 51 | 25 | 1.0 | 1.0 | 0.00 | 0.09 | 0.00 | 93 | 1020.3 |
| 20260507034004 | 51 | 25 | 0.0 | 2.0 | 0.00 | 0.09 | 0.00 | 93 | 1020.5 |
| 20260507033504 | 51 | 25 | 0.0 | 0.0 | 0.00 | 0.09 | 0.00 | 93 | 1020.2 |
| 20260507033003 | 51 | 25 | 0.0 | 0.0 | 0.00 | 0.09 | 0.00 | 93 | 1020.3 |
| 20260507032504 | 51 | 25 | 0.0 | 0.0 | 0.00 | 0.09 | 0.00 | 93 | 1020.3 |
| 20260507032004 | 51 | 25 | 0.0 | 0.0 | 0.00 | 0.09 | 0.00 | 93 | 1020.2 |
| 20260507031504 | 51 | 25 | 0.0 | 0.0 | 0.00 | 0.09 | 0.00 | 92 | 1020.3 |
| 20260507030504 | 52 | 25 | 0.0 | 0.0 | 0.00 | 0.09 | 0.00 | 92 | 1020.4 |
| 20260507030004 | 52 | 25 | 0.0 | 0.0 | 0.00 | 0.09 | 0.00 | 92 | 1020.4 |
| 20260507025504 | 52 | 25 | 0.0 | 1.0 | 0.00 | 0.09 | 0.00 | 92 | 1020.3 |
| 20260507025003 | 52 | 25 | 0.0 | 0.0 | 0.00 | 0.09 | 0.00 | 92 | 1020.3 |
| 20260507024004 | 52 | 25 | 0.0 | 1.0 | 0.00 | 0.09 | 0.00 | 92 | 1020.4 |
| 20260507023004 | 52 | 26 | 0.0 | 1.0 | 0.00 | 0.09 | 0.00 | 92 | 1020.4 |
| 20260507022504 | 52 | 26 | 0.0 | 1.0 | 0.00 | 0.09 | 0.00 | 92 | 1020.6 |
| 20260507022004 | 52 | 26 | 1.0 | 1.0 | 0.00 | 0.09 | 0.00 | 92 | 1020.6 |
| 20260507021504 | 52 | 26 | 0.0 | 0.0 | 0.00 | 0.09 | 0.00 | 92 | 1020.6 |
| 20260507020503 | 52 | 26 | 0.0 | 0.0 | 0.00 | 0.09 | 0.00 | 92 | 1020.6 |
| 20260507020004 | 52 | 26 | 0.0 | 0.0 | 0.00 | 0.09 | 0.00 | 92 | 1020.8 |
| 20260507015503 | 52 | 26 | 0.0 | 0.0 | 0.00 | 0.09 | 0.00 | 92 | 1020.7 |
| 20260507015004 | 52 | 26 | 0.0 | 0.0 | 0.00 | 0.09 | 0.00 | 92 | 1020.7 |
| 20260507014503 | 52 | 26 | 0.0 | 1.0 | 0.00 | 0.09 | 0.00 | 92 | 1020.6 |
| 20260507013503 | 52 | 26 | 1.0 | 2.0 | 0.00 | 0.09 | 0.00 | 92 | 1020.8 |
| 20260507012505 | 51 | 26 | 0.0 | 1.0 | 0.00 | 0.09 | 0.00 | 92 | 1020.8 |
| 20260507012004 | 51 | 26 | 0.0 | 0.0 | 0.00 | 0.09 | 0.00 | 92 | 1020.9 |
| 20260507011504 | 51 | 26 | 0.0 | 1.0 | 0.00 | 0.09 | 0.00 | 92 | 1021.1 |
| 20260507005504 | 51 | 26 | 0.0 | 1.0 | 0.00 | 0.09 | 0.00 | 93 | 1020.9 |
| 20260507005004 | 51 | 26 | 0.0 | 0.0 | 0.00 | 0.09 | 0.00 | 93 | 1020.8 |
| 20260507004504 | 51 | 26 | 0.0 | 1.0 | 0.00 | 0.09 | 0.00 | 93 | 1020.9 |
| 20260507004004 | 52 | 26 | 0.0 | 1.0 | 0.00 | 0.09 | 0.00 | 93 | 1020.9 |
| 20260507003504 | 52 | 26 | 0.0 | 1.0 | 0.00 | 0.09 | 0.00 | 93 | 1020.9 |
| 20260507003004 | 52 | 26 | 0.0 | 1.0 | 0.00 | 0.09 | 0.00 | 93 | 1020.9 |
| 20260507002504 | 52 | 26 | 0.0 | 0.0 | 0.00 | 0.09 | 0.00 | 93 | 1021.1 |
| 20260507002004 | 52 | 26 | 0.0 | 0.0 | 0.00 | 0.09 | 0.00 | 93 | 1021.0 |
| 20260507001504 | 52 | 26 | 0.0 | 0.0 | 0.00 | 0.09 | 0.00 | 93 | 1021.0 |
| 20260507001003 | 52 | 27 | 0.0 | 1.0 | 0.00 | 0.09 | 0.00 | 92 | 1021.1 |
| 20260507000004 | 52 | 26 | 0.0 | 0.0 | 0.00 | 0.09 | 0.00 | 92 | 1020.9 |
| 20260506235503 | 53 | 26 | 0.0 | 0.0 | 0.00 | 0.09 | 0.00 | 92 | 1021.2 |
| 20260506235004 | 53 | 26 | 0.0 | 1.0 | 0.00 | 0.09 | 0.00 | 92 | 1021.0 |
| 20260506234504 | 53 | 26 | 0.0 | 1.0 | 0.00 | 0.09 | 0.00 | 92 | 1021.0 |
| 20260506234003 | 52 | 26 | 0.0 | 0.0 | 0.00 | 0.09 | 0.00 | 92 | 1021.0 |
| 20260506233503 | 53 | 26 | 0.0 | 0.0 | 0.00 | 0.09 | 0.00 | 92 | 1020.9 |
| 20260506233004 | 53 | 26 | 0.0 | 1.0 | 0.00 | 0.09 | 0.00 | 91 | 1021.1 |
| 20260506232504 | 53 | 27 | 1.0 | 1.0 | 0.00 | 0.09 | 0.00 | 91 | 1021.0 |
| 20260506232004 | 53 | 27 | 0.0 | 1.0 | 0.00 | 0.09 | 0.00 | 91 | 1021.1 |
| 20260506231504 | 53 | 26 | 0.0 | 0.0 | 0.00 | 0.09 | 0.00 | 91 | 1021.1 |
| 20260506231003 | 53 | 26 | 0.0 | 1.0 | 0.00 | 0.09 | 0.00 | 91 | 1020.9 |
| 20260506225503 | 53 | 27 | 1.0 | 2.0 | 0.00 | 0.09 | 0.00 | 90 | 1020.9 |
| 20260506224503 | 53 | 27 | 0.0 | 1.0 | 0.00 | 0.09 | 0.00 | 90 | 1021.2 |
| 20260506224003 | 53 | 27 | 0.0 | 0.0 | 0.00 | 0.09 | 0.00 | 90 | 1021.3 |
| 20260506222004 | 54 | 27 | 1.0 | 1.0 | 0.00 | 0.09 | 0.00 | 89 | 1021.1 |
| 20260506221504 | 54 | 27 | 1.0 | 1.0 | 0.00 | 0.09 | 0.00 | 89 | 1021.1 |
| 20260506221004 | 54 | 27 | 0.0 | 1.0 | 0.00 | 0.09 | 0.00 | 89 | 1021.0 |
| 20260506220004 | 54 | 27 | 0.0 | 2.0 | 0.00 | 0.09 | 0.00 | 89 | 1021.2 |
| 20260506215504 | 54 | 27 | 0.0 | 1.0 | 0.00 | 0.09 | 0.09 | 89 | 1021.2 |
| 20260506215004 | 54 | 27 | 0.0 | 0.0 | 0.00 | 0.09 | 0.09 | 89 | 1021.1 |
| 20260506214504 | 54 | 27 | 0.0 | 1.0 | 0.00 | 0.09 | 0.09 | 89 | 1020.9 |
| 20260506214004 | 54 | 27 | 0.0 | 1.0 | 0.00 | 0.09 | 0.09 | 89 | 1021.0 |
| 20260506213504 | 54 | 27 | 0.0 | 1.0 | 0.00 | 0.09 | 0.09 | 89 | 1021.1 |
| 20260506212003 | 54 | 28 | 0.0 | 1.0 | 0.00 | 0.09 | 0.09 | 89 | 1020.9 |
| 20260506211503 | 54 | 28 | 1.0 | 1.0 | 0.00 | 0.09 | 0.09 | 89 | 1021.0 |
| 20260506211005 | 54 | 28 | 0.0 | 2.0 | 0.00 | 0.09 | 0.09 | 89 | 1020.9 |
| 20260506210504 | 54 | 28 | 0.0 | 1.0 | 0.00 | 0.09 | 0.09 | 90 | 1021.1 |
| 20260506204504 | 55 | 28 | 0.0 | 1.0 | 0.00 | 0.09 | 0.09 | 89 | 1020.5 |
| 20260506204004 | 55 | 28 | 0.0 | 1.0 | 0.00 | 0.09 | 0.09 | 89 | 1020.2 |
| 20260506203504 | 55 | 28 | 0.0 | 1.0 | 0.00 | 0.09 | 0.09 | 88 | 1020.1 |
| 20260506203004 | 55 | 28 | 0.0 | 1.0 | 0.00 | 0.09 | 0.09 | 88 | 1020.1 |
| 20260506202504 | 56 | 28 | 1.0 | 1.0 | 0.00 | 0.09 | 0.09 | 88 | 1019.9 |
| 20260506202004 | 55 | 28 | 1.0 | 1.0 | 0.00 | 0.09 | 0.09 | 88 | 1020.0 |
| 20260506201504 | 55 | 28 | 0.0 | 0.0 | 0.00 | 0.09 | 0.09 | 88 | 1019.8 |
| 20260506201004 | 55 | 28 | 1.0 | 2.0 | 0.00 | 0.09 | 0.09 | 88 | 1019.6 |
| 20260506200504 | 55 | 28 | 0.0 | 1.0 | 0.00 | 0.09 | 0.09 | 88 | 1019.6 |
| 20260506200004 | 55 | 28 | 0.0 | 0.0 | 0.00 | 0.09 | 0.09 | 88 | 1019.5 |
| 20260506195503 | 56 | 28 | 0.0 | 0.0 | 0.00 | 0.09 | 0.09 | 88 | 1019.6 |
| 20260506195003 | 56 | 28 | 0.0 | 1.0 | 0.00 | 0.09 | 0.09 | 88 | 1019.4 |
| 20260506194004 | 56 | 28 | 0.0 | 2.0 | 0.00 | 0.09 | 0.09 | 87 | 1019.3 |
| 20260506193504 | 56 | 28 | 0.0 | 2.0 | 0.00 | 0.09 | 0.09 | 86 | 1019.1 |
| 20260506192504 | 57 | 28 | 1.0 | 1.0 | 0.00 | 0.09 | 0.09 | 86 | 1019.1 |
| 20260506192004 | 57 | 28 | 1.0 | 3.0 | 0.00 | 0.09 | 0.09 | 85 | 1019.0 |
| 20260506191504 | 57 | 41 | 1.0 | 2.0 | 0.00 | 0.09 | 0.09 | 85 | 1019.2 |
| 20260506191004 | 57 | 49 | 1.0 | 3.0 | 0.00 | 0.09 | 0.09 | 85 | 1019.0 |
| 20260506190504 | 58 | 58 | 2.0 | 3.0 | 0.00 | 0.09 | 0.09 | 84 | 1018.9 |
| 20260506190003 | 58 | 52 | 2.0 | 5.0 | 0.00 | 0.09 | 0.09 | 83 | 1018.8 |
| 20260506185503 | 58 | 51 | 3.0 | 6.0 | 0.00 | 0.09 | 0.09 | 83 | 1018.7 |
| 20260506185004 | 58 | 38 | 3.0 | 6.0 | 0.00 | 0.09 | 0.09 | 83 | 1018.7 |
| 20260506184004 | 58 | 37 | 2.0 | 5.0 | 0.00 | 0.09 | 0.09 | 82 | 1018.7 |
| 20260506183503 | 59 | 50 | 3.0 | 5.0 | 0.00 | 0.09 | 0.09 | 81 | 1018.4 |
| 20260506183005 | 59 | 44 | 2.0 | 3.0 | 0.00 | 0.09 | 0.09 | 81 | 1018.3 |
| 20260506182504 | 59 | 29 | 2.0 | 5.0 | 0.00 | 0.09 | 0.09 | 81 | 1018.3 |
| 20260506181504 | 59 | 49 | 3.0 | 5.0 | 0.00 | 0.09 | 0.09 | 81 | 1018.4 |
| 20260506181004 | 59 | 50 | 3.0 | 6.0 | 0.00 | 0.09 | 0.09 | 80 | 1018.2 |
| 20260506180503 | 60 | 32 | 3.0 | 7.0 | 0.00 | 0.09 | 0.09 | 80 | 1018.2 |
| 20260506180005 | 60 | 43 | 3.0 | 6.0 | 0.00 | 0.09 | 0.09 | 79 | 1018.1 |
| 20260506175504 | 60 | 51 | 3.0 | 5.0 | 0.00 | 0.09 | 0.09 | 78 | 1017.9 |
| 20260506175004 | 61 | 40 | 3.0 | 7.0 | 0.00 | 0.09 | 0.09 | 77 | 1017.9 |
| 20260506174503 | 61 | 48 | 3.0 | 7.0 | 0.00 | 0.09 | 0.09 | 76 | 1018.0 |
| 20260506174004 | 61 | 48 | 2.0 | 3.0 | 0.00 | 0.09 | 0.09 | 76 | 1018.0 |
| 20260506173503 | 61 | 42 | 2.0 | 3.0 | 0.00 | 0.09 | 0.09 | 76 | 1018.0 |
| 20260506173004 | 61 | 37 | 0.0 | 3.0 | 0.00 | 0.09 | 0.09 | 76 | 1018.0 |
| 20260506172504 | 61 | 38 | 2.0 | 5.0 | 0.00 | 0.09 | 0.09 | 76 | 1017.9 |
| 20260506172004 | 61 | 42 | 3.0 | 6.0 | 0.00 | 0.09 | 0.09 | 76 | 1018.0 |
| 20260506171504 | 62 | 51 | 3.0 | 5.0 | 0.00 | 0.09 | 0.09 | 76 | 1018.0 |
| 20260506171003 | 62 | 48 | 3.0 | 5.0 | 0.00 | 0.09 | 0.09 | 74 | 1017.9 |
| 20260506170504 | 62 | 33 | 1.0 | 3.0 | 0.00 | 0.09 | 0.09 | 71 | 1018.0 |
| 20260506170004 | 62 | 46 | 2.0 | 3.0 | 0.00 | 0.09 | 0.09 | 71 | 1017.8 |
| 20260506165503 | 62 | 43 | 2.0 | 5.0 | 0.00 | 0.09 | 0.09 | 70 | 1018.0 |
| 20260506164503 | 61 | 70 | 1.0 | 3.0 | 0.00 | 0.09 | 0.09 | 69 | 1017.9 |
| 20260506164004 | 62 | 59 | 2.0 | 8.0 | 0.00 | 0.09 | 0.09 | 70 | 1017.9 |
| 20260506163004 | 61 | 85 | 2.0 | 6.0 | 0.00 | 0.09 | 0.09 | 71 | 1018.0 |
| 20260506162504 | 61 | 38 | 2.0 | 6.0 | 0.00 | 0.09 | 0.09 | 72 | 1018.1 |
| 20260506162003 | 61 | 38 | 1.0 | 6.0 | 0.00 | 0.09 | 0.09 | 72 | 1017.8 |
| 20260506161504 | 62 | 45 | 2.0 | 6.0 | 0.00 | 0.09 | 0.09 | 71 | 1017.8 |
| 20260506161004 | 62 | 32 | 2.0 | 3.0 | 0.00 | 0.09 | 0.09 | 69 | 1017.8 |
| 20260506160503 | 62 | 51 | 2.0 | 3.0 | 0.00 | 0.09 | 0.09 | 68 | 1017.7 |
| 20260506160004 | 61 | 54 | 2.0 | 6.0 | 0.00 | 0.09 | 0.09 | 68 | 1018.0 |
| 20260506155004 | 61 | 57 | 3.0 | 7.0 | 0.00 | 0.09 | 0.09 | 74 | 1018.0 |
| 20260506154503 | 62 | 60 | 4.0 | 6.0 | 0.00 | 0.09 | 0.09 | 73 | 1017.7 |
| 20260506154004 | 61 | 236 | 1.0 | 6.0 | 0.00 | 0.09 | 0.09 | 71 | 1017.7 |